Tappahannock, VA

8:00 AM EDT on August 22, 2019 (GMT -0400)
Tappahannock

Weather History for KXSA - July, 2019

Change the Weather History Date:

Sunday, July 21, 2019

  Actual Average (KOFP) Record (KOFP)
Temperature  
Mean Temperature 87 °F -  
Max Temperature 98 °F 89 °F 100 °F (1977)
Min Temperature 76 °F 67 °F 52 °F (2001)
Cooling Degree Days 22    
Growing Degree Days 37 (Base 50)    
Moisture  
Dew Point 76 °F    
Average Humidity 75    
Maximum Humidity 100    
Minimum Humidity 44    
Precipitation  
Precipitation 0.00 in - - ()
Sea Level Pressure  
Sea Level Pressure 29.90 in    
Wind  
Wind Speed 4 mph (SW)    
Max Wind Speed 12 mph    
Max Gust Speed 22 mph    
Visibility 10 miles    
Events      
Averages and records for this station are not official NWS values.
T = Trace of Precipitation, MM = Missing Value Source: NWS Daily Summary

Daily Weather History Graph

Daily Weather History Graph

Search for Another Location

Airport or City:

Astronomy

Jul. 21, 2019 Rise Set
Actual Time 6:01 AM EDT 8:25 PM EDT
Civil Twilight 5:31 AM EDT 8:55 PM EDT
Nautical Twilight 4:54 AM EDT 9:32 PM EDT
Astronomical Twilight 4:13 AM EDT 10:13 PM EDT
Moon 11:23 PM EDT (7/21) 10:16 AM EDT (7/21)
Length of Visible Light 15h 24m
Length of Day
14h 24m
Waning Gibbous, 80% of the Moon is Illuminated
Jul 21
Waning Gibbous
Jul 24
Last Quarter
Jul 31
New
Aug 7
First Quarter
Aug 15
Full

Hourly Weather History & Observations

Time (EDT) Temp. Heat Index Dew Point Humidity Pressure Visibility Wind Dir Wind Speed Gust Speed Precip Events Conditions
12:15 AM 81.3 °F 89.4 °F 78.1 °F 90% 29.90 in 10.0 mi SSW 3.5 mph - N/A   Clear
12:35 AM 79.7 °F - 78.4 °F 96% 29.91 in 10.0 mi West 3.5 mph - N/A   Clear
12:55 AM 81.1 °F 88.9 °F 78.1 °F 90% 29.91 in 10.0 mi SW 3.5 mph - N/A   Clear
1:15 AM 79.2 °F - 78.1 °F 96% 29.90 in 10.0 mi SW 3.5 mph - N/A   Clear
1:35 AM 78.8 °F - 78.3 °F 98% 29.90 in 10.0 mi SW 4.6 mph - N/A   Clear
1:55 AM 78.1 °F - 78.1 °F 100% 29.91 in 10.0 mi Calm Calm - N/A   Clear
2:15 AM 78.1 °F - 78.1 °F 100% 29.91 in 10.0 mi SW 3.5 mph - N/A   Clear
2:35 AM 78.8 °F - 78.1 °F 98% 29.91 in 10.0 mi WSW 3.5 mph - N/A   Clear
2:55 AM 78.4 °F - 78.1 °F 99% 29.90 in 10.0 mi Calm Calm - N/A   Clear
3:15 AM 78.4 °F - 77.9 °F 98% 29.90 in 10.0 mi Calm Calm - N/A   Clear
3:35 AM 77.5 °F - 77.5 °F 100% 29.90 in 10.0 mi Calm Calm - N/A   Clear
3:55 AM 78.3 °F - 77.9 °F 99% 29.89 in 10.0 mi Calm Calm - N/A   Clear
4:15 AM 78.1 °F - 77.9 °F 99% 29.89 in 10.0 mi Calm Calm - N/A   Clear
4:35 AM 77.9 °F - 77.9 °F 100% 29.89 in 10.0 mi Calm Calm - N/A   Clear
5:00 AM 77.0 °F - 77.0 °F 100% 29.87 in 10.0 mi South 3.5 mph - N/A   Clear
5:15 AM 77.4 °F - 77.4 °F 100% 29.89 in 10.0 mi Calm Calm - N/A   Clear
5:35 AM 77.0 °F - 77.0 °F 100% 29.89 in 10.0 mi SW 3.5 mph - N/A   Clear
5:55 AM 77.0 °F - 77.0 °F 100% 29.89 in 10.0 mi SW 3.5 mph - N/A   Clear
6:40 AM 77.0 °F - 77.0 °F 100% 29.90 in 10.0 mi WSW 3.5 mph - N/A   Clear
6:55 AM 77.5 °F - 77.5 °F 100% 29.90 in 10.0 mi SW 3.5 mph - N/A   Clear
7:15 AM 78.8 °F - 78.3 °F 98% 29.91 in 10.0 mi SW 4.6 mph - N/A   Clear
7:35 AM 79.7 °F - 78.4 °F 96% 29.91 in 10.0 mi WSW 4.6 mph - N/A   Clear
7:55 AM 81.0 °F 89.0 °F 78.8 °F 93% 29.92 in 10.0 mi SW 4.6 mph - N/A   Clear
8:15 AM 82.4 °F 92.4 °F 78.8 °F 89% 29.92 in 10.0 mi WSW 4.6 mph - N/A   Clear
8:35 AM 83.5 °F 95.1 °F 79.2 °F 87% 29.92 in 10.0 mi SW 4.6 mph - N/A   Clear
8:55 AM 84.4 °F 96.3 °F 78.8 °F 83% 29.93 in 10.0 mi WSW 5.8 mph - N/A   Clear
9:15 AM 85.5 °F 98.6 °F 79.2 °F 81% 29.93 in 10.0 mi SW 4.6 mph - N/A   Clear
9:40 AM 87.3 °F 103.2 °F 80.1 °F 79% 29.92 in 10.0 mi SW 3.5 mph - N/A   Clear
9:55 AM 88.0 °F 103.1 °F 79.3 °F 75% 29.93 in 10.0 mi WSW 4.6 mph - N/A   Clear
10:20 AM 89.4 °F 105.5 °F 79.2 °F 72% 29.93 in 10.0 mi West 4.6 mph - N/A   Clear
10:40 AM 90.7 °F 105.9 °F 78.4 °F 67% 29.92 in 10.0 mi SW 4.6 mph - N/A   Clear
10:55 AM 91.6 °F 106.3 °F 77.9 °F 64% 29.93 in 10.0 mi Calm Calm - N/A   Clear
11:15 AM 92.7 °F 106.4 °F 76.8 °F 60% 29.93 in 10.0 mi SSW 6.9 mph - N/A   Clear
11:40 AM 93.9 °F 106.9 °F 76.3 °F 56% 29.94 in 10.0 mi WSW 8.1 mph - N/A   Clear
11:55 AM 94.3 °F 107.8 °F 76.5 °F 56% 29.93 in 10.0 mi WSW 6.9 mph - N/A   Clear
12:15 PM 94.3 °F 107.8 °F 76.3 °F 56% 29.93 in 10.0 mi SW 5.8 mph - N/A   Clear
12:40 PM 94.6 °F 108.0 °F 76.1 °F 55% 29.92 in 10.0 mi SSW 5.8 mph - N/A   Clear
12:55 PM 95.7 °F 108.5 °F 75.6 °F 52% 29.92 in 10.0 mi SW 6.9 mph - N/A   Clear
1:15 PM 95.7 °F 106.9 °F 74.7 °F 50% 29.92 in 10.0 mi SW 10.4 mph - N/A   Clear
1:35 PM 95.9 °F 107.4 °F 74.5 °F 50% 29.92 in 10.0 mi SSW 6.9 mph - N/A   Clear
1:55 PM 96.8 °F 107.3 °F 73.8 °F 47% 29.91 in 10.0 mi WSW 5.8 mph - N/A   Clear
2:20 PM 96.3 °F 108.3 °F 75.0 °F 50% 29.90 in 10.0 mi SSW 5.8 mph - N/A   Scattered Clouds
2:35 PM 97.0 °F 109.3 °F 75.0 °F 49% 29.90 in 10.0 mi SSW 6.9 mph - N/A   Scattered Clouds
2:55 PM 97.5 °F 109.0 °F 73.9 °F 47% 29.89 in 10.0 mi SSW 8.1 mph - N/A   Clear
3:15 PM 98.1 °F 109.5 °F 74.3 °F 46% 29.89 in 10.0 mi SW 9.2 mph - N/A   Clear
3:35 PM 97.3 °F 108.6 °F 73.8 °F 47% 29.88 in 10.0 mi SSW 6.9 mph - N/A   Clear
3:55 PM 97.9 °F 107.6 °F 72.5 °F 44% 29.88 in 10.0 mi SSW 6.9 mph - N/A   Clear
4:15 PM 98.2 °F 110.0 °F 74.3 °F 46% 29.88 in 10.0 mi SW 6.9 mph - N/A   Clear
4:35 PM 97.2 °F 109.7 °F 75.2 °F 49% 29.88 in 10.0 mi SW 6.9 mph - N/A   Clear
4:55 PM 97.5 °F 111.5 °F 75.7 °F 50% 29.88 in 10.0 mi SW 8.1 mph - N/A   Clear
5:15 PM 97.5 °F 110.7 °F 75.2 °F 49% 29.87 in 10.0 mi SW 6.9 mph - N/A   Clear
5:35 PM 96.8 °F 109.6 °F 75.2 °F 50% 29.88 in 10.0 mi WSW 9.2 mph - N/A   Clear
5:55 PM 96.1 °F 111.9 °F 77.4 °F 55% 29.88 in 10.0 mi SSW 9.2 mph - N/A   Clear
6:15 PM 94.1 °F 108.1 °F 77.0 °F 57% 29.87 in 10.0 mi SSW 10.4 mph 19.6 mph N/A   Clear
6:35 PM 93.0 °F 103.2 °F 74.3 °F 54% 29.87 in 10.0 mi WSW 11.5 mph 21.9 mph N/A   Clear
6:55 PM 90.5 °F 97.5 °F 71.8 °F 54% 29.87 in 10.0 mi WSW 6.9 mph - N/A   Clear
7:15 PM 88.9 °F 96.1 °F 72.3 °F 58% 29.88 in 10.0 mi SW 8.1 mph - N/A   Clear
7:35 PM 87.1 °F 94.1 °F 72.9 °F 62% 29.89 in 10.0 mi SW 6.9 mph - N/A   Clear
7:55 PM 85.5 °F 92.2 °F 72.9 °F 66% 29.89 in 10.0 mi WSW 8.1 mph - N/A   Clear
8:15 PM 84.0 °F 90.2 °F 72.7 °F 69% 29.90 in 10.0 mi WSW 5.8 mph - N/A   Clear
8:35 PM 82.4 °F 87.9 °F 73.0 °F 73% 29.90 in 10.0 mi WSW 4.6 mph - N/A   Clear
8:55 PM 80.2 °F 84.7 °F 73.6 °F 80% 29.89 in 10.0 mi SW 4.6 mph - N/A   Clear
9:15 PM 82.2 °F 87.3 °F 72.3 °F 72% 29.90 in 10.0 mi West 5.8 mph - N/A   Clear
9:35 PM 80.4 °F 84.7 °F 72.5 °F 77% 29.91 in 10.0 mi WSW 4.6 mph - N/A   Clear
9:55 PM 78.4 °F - 72.9 °F 83% 29.91 in 10.0 mi SW 4.6 mph - N/A   Clear
10:15 PM 77.9 °F - 72.9 °F 84% 29.92 in 10.0 mi WSW 3.5 mph - N/A   Clear
10:35 PM 77.4 °F - 72.9 °F 86% 29.92 in 10.0 mi SW 3.5 mph - N/A   Clear
10:55 PM 76.6 °F - 73.0 °F 89% 29.91 in 10.0 mi Calm Calm - N/A   Clear
11:15 PM 76.8 °F - 73.0 °F 88% 29.91 in 10.0 mi Calm Calm - N/A   Clear
11:35 PM 76.6 °F - 72.5 °F 87% 29.91 in 10.0 mi Calm Calm - N/A   Clear
11:55 PM 76.1 °F - 73.4 °F 91% 29.91 in 10.0 mi Calm Calm - N/A   Clear